Voltar ao catálogo

SHARJAHSAT-2

AtivoCiênciaSSO
NORAD 68444·PAYLOAD·🇦🇪 UAE

Lançado Mar 30, 2026 de Vandenberg Space Force Base

Loading…

Próximas Passagens (próximas 24 horas)

TLE

AtualizadoSource: Space-Track

Época: Sep 14, 2026, 14:53 UTC

1 68444U 26067AE  26257.62047379  .00005515  00000-0  26031-3 0  9998
2 68444  97.4674 215.1049 0003074  65.8695 294.2861 15.19853890 25525

Acompanhe SHARJAHSAT-2 em tempo real com AllMySat

Download on the App Store